YUNYAO-1 46

导读

YUNYAO-1 46,即云遥一号46星,是中国云遥气象星座的成员卫星。北京时间2025年3月21日,它与云遥一号43-45、47-48星一同,在酒泉卫星发射中心由谷神星一号运载火箭发射升空,顺利进入预定轨道。该星搭载GNSS掩星探测载荷,可获取大气层温湿度、压力及电离层电子密度信息,服务气象观测研究,此次任务是谷神星一号运载火箭第19次飞行。

Basic Information
目录编号:
63347
目录名称:
YUNYAO-1 46
国际标识:
2025-059D
轨道中心:
EARTH
卫星名称:
YUNYAO-1 46
卫星全名:
YUNYAO-1 46
卫星状态:
在轨 (已飞行540 天)
发射日期:
2025-03-21 UTC
国别 :
中国 (CN)
星等 :
--
This satellite is enrolled in the Space Conjunction Data Service (SCDS) and the current flight risk assessment level is: No High Risk
Orbit Information
数据来源 国际轨道数据
星历时间: 2026-09-12T15:18:25+0800
10小时前
查看轨道信息
半长轴: 6910.212km
偏心率: 0.0011046
轨道倾角: 97.615°
近地点辐角 198.880°
升交点赤经 76.294°
平近点角 161.202°
近地点: 524.441km
远地点: 539.709km
周期: 95.279分钟
每日圈数: 15.113524
Detailed Information
使用方式:
暂无
2D Orbit Map
3D Orbit Map
Orbit Altitude Analysis Chart
Orbit Inclination Analysis Chart
Orbit Comprehensive Analysis Chart
View Comprehensive Chart
Conjunction Data List
Event ID Objects TCA Miss Dist (km) Collision Risk Probability Collision Risk Index (CRI) Action
CDM_260914-193103-408806-334722
2026-09-14T
19:31:24+0000
1.557 km
极远距离
6.031269E-6 低风险 0.51
CDM_260914-103506-334706-505621
2026-09-14T
10:35:49+0000
2.056 km
极远距离
2.377567E-6 低风险 0.43
CDM_260912-055606-023506-334727
OBJECT A (60235)
2026-09-12T
05:56:51+0000
2.998 km
极远距离
1.321512E-6 低风险 0.37
Miss Distance Evolution Trend with All Objects
Collision Probability Evolution Trend with All Objects